Flag for U.S.A. Weather past 2 weeks in Barrow, Alaska, U.S.A.

Now
35 °F

Low clouds.


Feels Like: 24 °F
Forecast: 34 / 42 °F
Wind: 22 mph from Southeast

Location: Post Rogers Memorial Airport

Current Time: Sep 4, 2015 at 2:18:22 PM

Latest Report: Sep 4, 2015 at 12:53 PM


Visibility: 9 mi

Pressure: 29.97 "Hg

Humidity: 92%

Dew point: 33 °F

Location of BarrowLocation

Historic Weather in Barrow — Graph

°F

Barrow temperature yesterday

Maximum temperature yesterday: 36 °F (at 2:53 AM)
Minimum temperature yesterday: 34 °F (at 3:53 AM)
Average temperature yesterday: 35 °F

Past Weeks' High & Low Weather Summary

 TemperatureHumidityPressure
High52 °F (Aug 25, 5:53 PM)100% (Aug 20, 11:53 PM)30.22 "Hg (Aug 20, 11:53 PM)
Low32 °F (Aug 29, 10:00 AM)63% (Aug 20, 12:53 PM)29.30 "Hg (Aug 29, 6:53 AM)
Average37 °F91%29.82 "Hg
* Reported Aug 20 12:53 PM — Sep 4 12:53 PM, Barrow, Weather by CustomWeather, © 2015

Note: Actual official high and low records may vary slightly from our data, if they occured in-between our weather recording intervals... More about our weather records

Advertising

Barrow weather history for previous 24 hours

 ConditionsComfort  
Time TempWeatherWind HumidityBarometerVisibility
12:53 PM
Fri, Sep 4
35 °FLow clouds.22 mph92%29.97 "Hg9 mi
11:53 AM35 °FLow clouds.25 mph92%29.98 "Hg10 mi
10:53 AM34 °FLow clouds.24 mph97%29.98 "Hg9 mi
9:53 AM34 °FLow clouds.23 mph92%29.98 "Hg10 mi
8:53 AM34 °FLow clouds.16 mph97%29.99 "Hg9 mi
7:53 AM34 °FLow clouds.24 mph92%30.00 "Hg9 mi
6:53 AM33 °FLow clouds.26 mph96%30.00 "Hg10 mi
5:53 AM34 °FLow clouds.21 mph97%30.01 "Hg10 mi
4:53 AM33 °FLow clouds.23 mph96%30.02 "Hg10 mi
3:53 AM33 °FLow clouds.21 mph96%30.03 "Hg10 mi
2:53 AM34 °FLow clouds.18 mph97%30.05 "Hg8 mi
1:53 AM33 °FLow clouds.21 mph96%30.06 "Hg10 mi
12:53 AM33 °FLow clouds.24 mph96%30.07 "Hg9 mi
11:53 PM
Thu, Sep 3
34 °FLow clouds.18 mph97%30.07 "Hg9 mi
10:53 PM35 °FLow clouds.20 mph96%30.08 "Hg9 mi
9:53 PM35 °FLow clouds.23 mph96%30.09 "Hg10 mi
8:53 PM35 °FLow clouds.25 mph96%30.09 "Hg8 mi
7:53 PM36 °FLow clouds.23 mph92%30.10 "Hg9 mi
6:53 PM36 °FLow clouds.20 mph97%30.12 "Hg8 mi
5:53 PM36 °FLow clouds.17 mph97%30.12 "Hg10 mi
4:53 PM36 °FFog.21 mph100%30.14 "Hg3 mi
3:53 PM36 °FFog.20 mph97%30.15 "Hg2 mi
2:53 PM36 °FFog.15 mph97%30.16 "Hg2 mi
Weather by CustomWeather, © 2015

See weather overviewHow to use our weather pages